Regional Weather Roundup
Issued by NWS

Home | Current Version | Previous Version | Graphics & Text | Print | Product List | Glossary On
Versions: 1 2 3 4 5 6 7 8 9 10 11 12 13 14 15 16 17 18 19 20 21 22 23 24 25 26 27 28 29 30 31 32 33 34 35 36 37 38 39 40 41 42 43 44 45 46 47 48 49 50
000
ASUS43 KDMX 230801
RWRIA

WEATHER ROUNDUP FOR IOWA
NATIONAL WEATHER SERVICE DES MOINES IA
300 AM CDT SAT SEP 23 2017

NOTE: "FAIR" INDICATES FEW OR NO CLOUDS BELOW 12,000 FEET WITH NO
SIGNIFICANT WEATHER AND/OR OBSTRUCTIONS TO VISIBILITY.

* - THESE STATIONS ARE NOT NWS STATIONS...THUS NOT UNDER NWS
QUALITY CONTROL.  THEY ALSO DO NOT REPORT WEATHER SUCH
AS PRECIPITATION OR FOG.

IAZ001>003-012>014-020>022-031>034-043>046-230900-
   NORTHWEST IOWA

CITY           SKY/WX    TMP DP  RH WIND       PRES   REMARKS
CARROLL *      CLEAR     72  68  88 S6        29.92R
CHEROKEE *     CLEAR     73  69  88 S7        29.89S
DENISON *      CLEAR     73  68  83 S8G15     29.92R
LE MARS *      CLEAR     73  68  83 S6        29.88R
ORANGE CITY *  CLOUDY    75  70  83 S7        29.89R
SHELDON *      PTCLDY    73  68  83 S9        29.87S
SIOUX CITY     CLEAR     73  69  87 SE6       29.87R
SPENCER        CLEAR     71  67  87 SE6       29.91R
STORM LAKE *   CLEAR     72  68  88 S7        29.92R
$$

IAZ055>058-069>071-079>083-090>094-230900-
   SOUTHWEST IOWA

CITY           SKY/WX    TMP DP  RH WIND       PRES   REMARKS
ATLANTIC *     CLEAR     75  68  78 S10G20    29.92S
AUDUBON *      CLEAR     73  68  83 S9        29.93S
CLARINDA *     CLEAR     72  68  88 S6        29.95S
COUNCIL BLFS * CLEAR     73  70  88 S8G16     29.90S
CRESTON *      CLEAR     70  66  88 SE8       29.97S
HARLAN  *      CLEAR     73  68  83 S10       29.94R
LAMONI         CLEAR     71  68  90 S5        29.97S
RED OAK *      CLEAR     73  68  83 S7        29.92S
SHENANDOAH *   CLEAR     73  68  83 S10G18    29.92S
$$

IAZ047>049-059>061-072>074-084-230900-
   CENTRAL IOWA

CITY           SKY/WX    TMP DP  RH WIND       PRES   REMARKS
AMES           CLEAR     68  67  96 SE5       29.94F
ANKENY *       CLEAR     72  66  83 S5        29.95S
BOONE *        CLEAR     73  68  83 VRB7      29.93F
CHARITON *     CLEAR     70  66  88 S7        29.97S
DES MOINES     CLEAR     74  67  78 S7        29.94F
GRINNELL*      CLEAR     69  64  85 SE3       29.98F
KNOXVILLE *    CLEAR     72  66  83 S5        29.95F
MARSHALLTOWN   CLEAR     70  67  90 S7        29.96S
NEWTON *       CLEAR     66  64  94 SE7       29.96F
PELLA *        CLEAR     72  65  80 S5        29.98S
PERRY *          N/A     70  69  95 S6        29.93F
$$

IAZ004>006-015-016-023>025-035-036-230900-
   NORTH CENTRAL IOWA

CITY           SKY/WX    TMP DP  RH WIND       PRES   REMARKS
ALGONA *       CLEAR     73  70  88 S8        29.92R
CLARION *      CLEAR     72  70  94 S10       29.93S
ESTHERVILLE    CLEAR     71  68  90 S9        29.90R
FORT DODGE *   CLEAR     75  32  20 S13       29.92F
MASON CITY     PTCLDY    71  66  84 S8        29.94F
FOREST CITY *    N/A     73  66  78 S8        29.93S
WEBSTER CITY * CLEAR     72  66  83 S7        29.91S
IOWA FALLS *     N/A     69  66  90 SE7       29.96F
$$

IAZ007>011-017>019-026>030-037>042-050>054-066-230900-
   NORTHEAST IOWA

CITY           SKY/WX    TMP DP  RH WIND       PRES   REMARKS
CEDAR RAPIDS   CLEAR     71  32  23 S6        29.98F
CHARLES CITY * CLEAR     72  68  88 S7        29.96S
CLINTON *      CLEAR    N/A N/A N/A S7        30.02S
DECORAH *      CLEAR     73  64  73 S7        29.96F
DUBUQUE        CLEAR     69  63  81 S6        30.01F
MONTICELLO *   CLEAR     68  63  83 CALM      29.99S
OELWEIN *      CLEAR     66  66 100 S7        29.99S
WATERLOO       CLEAR     70  65  84 S7        29.96S
$$

IAZ064-065-067-068-078-230900-
   EAST CENTRAL IOWA

CITY           SKY/WX    TMP DP  RH WIND       PRES   REMARKS
DAVENPORT      CLEAR     70  64  81 SE8       30.03R
IOWA CITY      PTCLDY    69  64  84 CALM      30.00S
MUSCATINE *    CLEAR     66  64  94 CALM      30.00S
QUAD CITIES    CLEAR     71  63  75 CALM      30.00S
$$

IAZ062-063-075>077-085>089-095>099-230900-
   SOUTHEAST IOWA

CITY           SKY/WX    TMP DP  RH WIND       PRES   REMARKS
BURLINGTON     CLEAR     71  64  78 S3        30.00S
FAIRFIELD *    CLEAR     73  63  68 S6        29.98F
FORT MADISON * CLEAR     77  63  61 S7        30.01S
KEOKUK *       CLEAR     72  63  73 SE3       29.99F
OSKALOOSA *      N/A     67  64  89 SE5       29.98F
OTTUMWA        CLEAR     71  65  81 S6        29.98S
WASHINGTON *   CLEAR     68  64  88 S6        30.00S
$$

ABBREVIATIONS USED IN REMARKS
   TC - TEMPERATURES IN CELSIUS
  WCI - WIND CHILL INDEX
   HX - HEAT INDEX
  VSB - VISIBILITY
$$




USA.gov is the U.S. government's official web portal to all federal, state and local government web resources and services.